Location: Castillon
(43.0896°N, 0.2156°E)
Time: 02:45:44
(UTC+00:00)

Cosmos 1503 Rocket - Pass Details

Date: 16 June 2021
Orbit: 752 x 791 km, 74.0° (Epoch: 04 August)

Event Time Altitude Azimuth Distance (km) Brightness Sun altitude
Rises 23:10:24 0° 341° (NNW) 3,297 8.7 -22.6°
Reaches altitude 10° 23:12:49 10° 343° (NNW) 2,365 7.7 -22.6°
Maximum altitude 23:18:12 73° 68° (ENE) 829 4.1 -22.8°
Enters shadow 23:19:30 51° 136° (SE) 985 4.2 -22.9°
